weather.gov     
National Weather Service

Regional Weather Roundup
NWS Homepage
This page is being discontinued on March 12, 2014.
The same data is available at this site. Please update your bookmarks.
Thank you, and we apologize for the inconvenience.
Please send an email to SR-SRH.Webmaster@noaa.gov with any concerns.


Current Version
Previous Version:    01  02  03  04  05  06  07  08  09  10  11  12  13  14  15  16  17  18  19  20  21  22  23  24  25  26  
[Printable]
463
ASUS41 KPHI 300410
RWRPHI

REGIONAL WEATHER ROUNDUP
NATIONAL WEATHER SERVICE MOUNT HOLLY NJ
1100 PM EST THU JAN 29 2015

NOTE:  "FAIR" INDICATES FEW OR NO CLOUDS BELOW 12,000 FEET WITH NO
SIGNIFICANT WEATHER AND/OR OBSTRUCTIONS TO VISIBILITY.

 * = STATION DOES NOT REPORT PRECIPITATION (E.G. RAIN, SNOW, ETC.)
        OR FOG.

NJZ015>026-300500-
SOUTHERN NEW JERSEY

CITY           SKY/WX    TMP DP  RH WIND       PRES   REMARKS
POMONA         CLOUDY    35  28  75 S8        30.01F WCI  29
RIO GRANDE*    CLOUDY    37  27  65 S13       30.01F WCI  29
MILLVILLE      CLOUDY    35  26  69 VRB5      30.00F WCI  31
WRIGHTSTOWN    FLURRIES  32  25  74 VRB3      29.98F
MOUNT HOLLY    CLOUDY    32  24  72 CALM      30.01F
TRENTON        LGT SNOW  30  24  78 S8        30.00F WCI  22

$$
NJZ001>014-300500-
NORTHERN NEW JERSEY

CITY           SKY/WX    TMP DP  RH WIND       PRES   REMARKS
SUSSEX         LGT SNOW  26  22  84 SW3       29.96F FOG
ANDOVER*         N/A     26  23  88 S6        29.97F WCI  19
MORRISTOWN     LGT SNOW  32  25  74 CALM      30.02F
NEWARK         FLURRIES  32  25  75 CALM      30.03F
TETERBORO      FLURRIES  32  24  72 S5        30.02F WCI  27
CALDWELL       LGT SNOW  29  25  85 CALM      30.02F FOG
SOMERVILLE     LGT SNOW  30  24  78 CALM      29.99F
ALLAIRE*       CLOUDY    34  25  69 CALM      30.01F
TOMS RIVER*    CLOUDY    34  28  80 CALM      30.02F

$$
PAZ043-044-047-054-055-060>062-066>071-300500-
EASTERN PENNSYLVANIA

CITY           SKY/WX    TMP DP  RH WIND       PRES   REMARKS
PHILADELPHIA   CLOUDY    33  22  63 VRB6      30.01F WCI  28
NORTH PHILA    CLOUDY    33  22  63 SE5       30.01F WCI  29
BLUE BELL      CLOUDY    32  27  80 S6        29.98F WCI  26
DOYLESTOWN     CLOUDY    27  25  92 SE3       29.97F
QUAKERTOWN*    CLOUDY    28  25  86 S3        29.97F
POTTSTOWN      LGT SNOW  28  25  88 VRB3      29.98F FOG
LANCASTER      CLOUDY    29  23  78 SE3       29.94F
COATESVILLE    CLOUDY    32  27  80 SE6       29.94F WCI  26
READING        CLOUDY    29  24  82 SE3       29.95F
ALLENTOWN      CLOUDY    28  23  80 SE5       29.96F WCI  23
MOUNT POCONO   LGT SNOW  21  18  88 SE6       29.85F FOG     WCI  13
HAZLETON       LGT SNOW  27  23  86 S5        29.89F WCI  21
WILKES BARRE   CLOUDY    28  20  71 SW6       29.88F WCI  22

$$
DEZALL-MDZ008-012-015-019-020-300500-
DELAWARE AND EASTERN MARYLAND

CITY           SKY/WX    TMP DP  RH WIND       PRES   REMARKS
WILMINGTON     CLOUDY    33  23  66 S9        29.99F WCI  25
GEORGETOWN     CLOUDY    36  24  62 S9        30.01F WCI  29
EASTON         CLOUDY    38  28  67 S14       30.01F WCI  30
PATUXENT       CLOUDY    39  20  46 S12G22    29.97F WCI  32
OCEAN CITY     CLOUDY    37  30  75 SW12      30.03F WCI  29
WALLOPS ISLAND CLOUDY    38  29  70 SW16      30.04F WCI  29
CAMBRIDGE      CLOUDY    37  28  70 S10G18    29.99S WCI  30
SALISBURY      CLOUDY    40  23  50 S10       30.01F WCI  33

$$
PAZ001-021-NYZ056-072-MDZ011-DCZ001-300500-
OTHER NEARBY LOCATIONS

CITY           SKY/WX    TMP DP  RH WIND       PRES   REMARKS
HARRISBURG     FLURRIES  29  25  85 E5        29.93F WCI  24
STATE COLLEGE  LGT SNOW  26  25  94 S5        29.84F WCI  21
WILLIAMSPORT   LGT SNOW  28  22  78 NE8       29.90F WCI  20
BINGHAMTON     CLOUDY    23  20  88 S9        29.80F WCI  13
NEW YORK CITY  CLOUDY    35  23  61 VRB3      30.04F
BALTIMORE      CLOUDY    34  24  67 CALM      29.94F
WASHINGTON DC  CLOUDY    39  22  50 S9        29.95F WCI  33

$$




U.S. Dept. of Commerce
NOAA National Weather Service
1325 East West Highway
Silver Spring, MD 20910
E-mail: w-nws.webmaster@noaa.gov
Page last modified: May 16, 2007
NATIONAL WEATHER SERVICE: for Safety, for Work, for Fun - FOR LIFE